www.pogodaiklimat.ru

Погода и климат >> Архив погоды >> Россия >> Магаданская область >> Палатка


ПОГОДА в Палатке

  • Прогноз погоды в Палатке
  • Монитор погоды в Палатке

АРХИВ ПОГОДЫ в Палатке

Время (UTC), дата Ветер
(напр.,м/с)
 
Видим.   Явления Облачность Т
(С)
Тd
(С)
f
(%)
Тe
(С)
Тes
(С)
Комфортность P
(гПа)
Po
(гПа)
Тmin
(С)
Tmax
(С)
R
(мм)
R24
(мм)
S
(см)
15 15.09 В 2
{10}
10 км слаб. ливневой дождь 9/9 600 м
[Cb cap]
+6.5 +5.8 95 +4 +4 1005.4 964.6
18 15.09 В 2 10 км слаб. ливневой дождь 9/9 600 м
[Cb cap]
+6.1 +5.1 93 +4 +4 1009.0 968.0
21 15.09 В 4 50 км слаб. ливневой дождь 9/9 600 м
[Cb cap]
+6.0 +4.4 89 +2 +2 1008.8 967.8 +5.7 4
00 16.09 В 4 50 км {ливн. осадки} 9/9 600 м
[Cb cap]
+8.1 +4.1 76 +5 +5 1011.5 970.7
03 16.09 В 3 50 км 9/8 600 м
[Cb cap Ac trans]
+10.8 +1.9 54 +9 +10 1011.1 970.7
06 16.09 ЮВ 4 50 км 8/6 600 м
[Cb cap Ac trans]
+10.2 +2.5 59 +8 +8 1012.6 972.0
09 16.09 СВ 2 50 км 1/1 1000 м
[Sc]
+6.4 +1.9 73 +4 +4 1014.5 973.3 +11.6
12 16.09 СВ 1 50 км ясно +2.4 +1.4 93 +1 +1 1016.6 974.7
15 16.09 В 1 50 км 8/1 1000 м
[Sc Ac trans]
+2.8 +1.9 94 +1 +1 1016.5 974.7
18 16.09 СВ 2 50 км слаб. ливневой дождь 9 баллов +4.7 +4.0 95 +2 +2 1016.2 974.7
21 16.09 В 2 50 км слаб. ливневой дождь 9/9 600 м
[Cb cap]
+6.0 +4.2 88 +4 +4 1014.2 972.9 +2.0 1
00 17.09 В 3 50 км {ливн. осадки} 9/6 600 м
[Cb cap Ac trans]
+8.1 +3.9 75 +6 +6 1014.2 973.3
03 17.09 В 3 50 км 9/8 600 м
[Cb cap Ac trans]
+11.1 +4.8 65 +9 +10 1012.4 972.0
06 17.09 В 2 50 км 9/8 600 м
[Cb cap Ac trans]
+10.7 +4.4 65 +10 +10 1011.1 970.7
09 17.09 штиль 0 50 км 9/8 600 м
[Cb cap Ac trans]
+8.6 +4.3 74 +8 +8 1010.8 970.1 +11.5 0.0
12 17.09 СВ 2 50 км 8/4 600 м
[Cb cap Ac trans Ci fib]
+4.2 +3.0 92 +1 +1 1012.1 970.7
15 17.09 СВ 1 50 км 8/4 600 м
[Cb cap Ac trans Ci fib]
+3.2 +2.8 97 +1 +1 1012.3 970.7
18 17.09 штиль 0 50 км 9/4 600 м
[Cb cap Ac trans Ci fib]
+2.7 +2.4 98 +1 +1 1012.3 970.7
21 17.09 штиль 0 50 км слаб. ливневой дождь 9/6 600 м
[Cb cap Ac trans]
+3.4 +3.2 99 +2 +2 1011.5 970.0 +2.1 0.3
00 18.09 штиль 0 50 км слаб. ливневой дождь туман 9/8 600 м
[Cb cap Ac trans]
+5.9 +5.2 95 +5 +5 1013.2 972.0
03 18.09 ЮЗ 1 50 км 9 баллов +7.9 +6.5 91 +7 +8 1012.9 972.0
06 18.09 СВ 2 50 км слаб. ливневой дождь 9/8 600 м
[Cb cap Ac trans]
+8.6 +5.0 78 +7 +7 1012.8 972.0
09 18.09 В 1 50 км слаб. ливневой дождь 9/9 600 м
[Cb cap]
+6.7 +5.2 90 +6 +6 1014.4 973.3 +9.0 1
12 18.09 В 1 50 км {ливн. осадки} 9/9 600 м
[Cb cap]
+4.8 +4.5 98 +3 +3 1014.7 973.3
15 18.09 В 2 50 км 9/9 600 м
[Cb cap]
+4.0 +3.9 99 +1 +1 1014.8 973.3
18 18.09 В 1 50 км 9/6 1000 м
[Sc Ac trans]
+3.5 +3.5 100 +2 +2 1014.9 973.3
21 18.09 СВ 1 50 км туман местами 9/3 1000 м
[Sc Ac trans]
+3.1 +3.1 100 +1 +1 1014.4 972.7 +2.3 0.1
00 19.09 З 1 50 км 2 балла +11.8 +3.3 56 +12 +16 1013.7 973.3
03 19.09 СВ 3 50 км 8/8 600 м
[Cb cap Ac trans]
+13.4 -0.3 39 +13 +14 1012.1 972.0
06 19.09 С 2 50 км 9/9 600 м
[Cb cap]
+12.0 +1.3 48 +11 +11 1012.3 972.0
09 19.09 СВ 1 50 км 4/3 1000 м
[Sc Ci fib]
+7.8 +0.8 61 +7 +7 1014.3 973.3 +14.5
12 19.09 В 2 50 км 4/4 1000 м
[Sc]
+2.0 +0.1 87 -1 -1 1015.2 973.3
15 19.09 В 2 50 км 3/3 1000 м
[Sc]
+0.4 -0.5 94 -3 -3 1016.9 974.7
18 19.09 В 2 50 км 3/3 1000 м
[Sc]
-1.6 -1.9 98 -6 -6 1015.7 973.3
21 19.09 штиль 0 50 км 6/3 1000 м
[Sc Ac trans Ci fib]
-0.4 -1.2 94 -2 -1 1015.7 973.4 -2.3
00 20.09 С 3 50 км 9/6 600 м
[Cb cap Ac trans Ci fib]
+10.5 +0.8 51 +9 +9 1013.9 973.3
03 20.09 СВ 3 50 км 9/6 600 м
[Cb cap Ac trans Ci fib]
+11.7 -0.5 43 +10 +11 1013.7 973.3
06 20.09 СВ 1 50 км 8/4 1000 м
[Sc Ac trans Ci fib]
+11.4 -3.1 36 +12 +12 1013.8 973.3
09 20.09 В 1 50 км 9/6 1000 м
[Sc Ac trans Ci fib]
+8.3 -0.7 53 +8 +8 1015.7 974.7 +12.4
12 20.09 В 2 50 км 9/6 1000 м
[Sc Ac trans Ci fib]
+4.4 -0.4 71 +2 +2 1016.3 974.7
15 20.09 В 2 50 км 9/6 1000 м
[Sc Ac trans Ci fib]
+2.2 -0.7 81 -1 -1 1016.6 974.7
18 20.09 штиль 0 50 км 4/0
[Ci fib]
+1.0 -0.5 90 -0 -0 1016.8 974.7
21 20.09 ЮВ 1 50 км 6/0
[Ci fib]
-1.2 -1.8 96 -4 -3 1016.5 974.0 -1.5
00 21.09 штиль 0 50 км слаб. ливневой дождь 9 баллов +4.3 +2.3 87 +3 +4 1016.3 974.7
03 21.09 штиль 0 50 км {ливн. осадки} 9/8 600 м
[Cb cap Ac trans]
+7.1 +4.1 81 +6 +7 1014.4 973.3
06 21.09 З 2 50 км {ливн. осадки} 9/4 600 м
[Cb cap Ac trans Ci fib]
+8.8 +3.8 71 +7 +7 1012.8 972.0
09 21.09 В 2 50 км 9/8 600 м
[Cb cap Ac trans Ci fib]
+5.4 +3.6 88 +3 +3 1013.3 972.0 +9.1 0.3
12 21.09 СВ 1 20 км слаб. ливневой дождь 9/9 600 м
[Cb cap]
+4.8 +4.4 97 +3 +3 1013.3 972.0
15 21.09 С 2 50 км {ливн. осадки} 9/8 600 м
[Cb cap Ac trans]
+3.5 +3.4 99 0 0 1013.6 972.0
18 21.09 В 1 20 км слаб. ливневой дождь 9/8 600 м
[Cb cap Ac trans]
+2.8 +2.7 99 +1 +1 1012.3 970.7
21 21.09 СВ 2 20 км слаб. ливневой дождь 9/8 600 м
[Cb cap Ac trans]
+3.9 +3.8 99 +1 +1 1010.9 969.5 +2.6 5
00 22.09 СВ 1 20 км слаб. ливневой дождь 9 баллов +7.1 +6.7 97 +6 +6 1010.2 969.3
03 22.09 З 1 10 км слаб. ливневой дождь 9 баллов +7.1 +6.4 95 +6 +6 1010.2 969.3
06 22.09 В 1 20 км в посл. час ливневой дождь 9 баллов +7.3 +5.6 89 +6 +6 1010.1 969.3
09 22.09 СВ 1 20 км слаб. ливневой дождь 9/8 200 м
[Cb cap Ac trans]
+5.9 +5.5 97 +5 +5 1010.4 969.3 +7.5 5
12 22.09 В 1 20 км слаб. ливневой дождь 9 баллов +5.1 +5.0 99 +4 +4 1010.5 969.3

 

Местоположение метеостанции Палатка (Магаданская область, Россия): широта 60.10 долгота 150.90 высота над уровнем моря 341 м.

В архиве по умолчанию представлена погода в Палатке за последнюю неделю. Архивные данные за месяц целиком и за предыдущие месяцы, начиная с января 2011 года, Вы можете получить, выбрав интересующий диапазон дат из раскрывающегося списка и нажав кнопку "Ввод!".


*Определитесь, кто Вы:
робот инопланетянин человек

Внимание! Время в таблицах - всемирное. Для получения местного времени необходимо прибавить поправку, которая равна 11 ч.

Смотрите также архив погоды в соседних городах и на ближайших метеорологических станциях:

Погода в Мадауне (Магаданская область, Россия) (57 км)
Погода в Магадане (Магаданская область, Россия) (62 км)
Погода в Оле (Магаданская область, Россия) (62 км)
Погода в Нагаева (Магаданская область, Россия) (65 км)
Погода в Армани (Магаданская область, Россия) (66 км)
Погода в Талоне (Магаданская область, Россия) (134 км)
Погода в Усть-Омчуге (Магаданская область, Россия) (134 км)
Погода в Талой (Магаданская область, Россия) (138 км)
Погода на Мысе Алевина (Магаданская область, Россия) (143 км)
Погода на Острове Спафарьева (Магаданская область, Россия) (150 км)

Пояснения к столбцам:

Ветер - указаны скорость ветра в м/с - средняя за 10 мин, порывы в срок и между сроками (в фигурных скобках) и направление, откуда дует ветер: С - северный, СВ - северо-восточный, В - восточный, ЮВ - юго-восточный, Ю - южный, ЮЗ - юго-западный, З - западный, СЗ - северо-западный.
Видимость - горизонтальная дальность видимости в метрах или километрах. При видимости от 1 до 10 км при отсутствии осадков обычно наблюдается дымка, при ухудшении видимости до 1 км и менее - туман. В сухую погоду видимость может ухудшаться дымом, пылью или мглою.
Явления - указаны атмосферные явления, наблюдавшиеся в срок или в последний час перед сроком; фигурными скобками обозначены явления, наблюдавшиеся между сроками (за 1-3 часа до срока); квадратными скобками обозначены град или гололедные отложения с указанием их диаметра в мм.
Облачность - указаны через наклонную черту общая и нижняя облачность в баллах и высота нижней границы облаков в метрах; квадратными скобками обозначены формы облаков: Ci - перистые, Cs - перисто-слоистые, Cc - перисто-кучевые, Ac - высококучевые, As - высокослоистые, Sc - слоисто-кучевые, Ns - слоисто-дождевые, Cu - кучевые, Cb - кучево-дождевые. Подробнее классификацию облаков см. в Атласе облаков (PDF).
T - Температура воздуха - температура, измеренная на высоте 2 м над землей.
Td - Температура точки росы - температура, при понижении до которой содержащийся в воздухе водяной пар достигнет насыщения.
f - Относительная влажность воздуха - влажноcть воздуха, измеренная на высоте 2 м над землей.
Te - Эффективная температура - температура, которую ощущает одетый по сезону человек в тени. Характеристика душности погоды. При расчете учитывается влияние влажности воздуха и скорости ветра на теплоощущения человека.
Tes - Эффективная температура на солнце - температура, которую ощущает человек, с поправкой на солнечный нагрев. Характеристика знойности погоды. Зависит от высоты солнца над горизонтом, облачности и скорости ветра. Ночью, в пасмурную погоду, а также при ветре 12 м/с и более поправка равна нулю.
P - Атмосферное давление - приведенное к уровню моря атмосферное давление.
Po - Атмосферное давление - измеренное на уровне метеостанции атмосферное давление.
Tmin - Минимальная температура - минимум температуры воздуха на высоте 2 м над землей.
Tmax - Максимальная температура - максимум температуры воздуха на высоте 2 м над землей.
R - Количество осадков - Количество выпавших осадков за период времени, мм. При наведении курсора мыши на число - период времени, за который выпало указанное количество осадков.
R24 - Количество осадков - Количество выпавших осадков за 24 часа, мм.
S - Снежный покров - Высота снежного покрова, см. При наведении курсора мыши на число - состояние снежного покрова и степень покрытия местности в баллах.